{"data":{"norad_id":51126,"intl_designator":"2022-005Y","name":"STARLINK-3386","alt_names":[],"object_type":"PAYLOAD","status":"ACTIVE","operator":null,"country":"US","launch_date":"2022-01-19","launch_site_code":"AFETR","launch_vehicle":null,"mission":null,"orbit_class":"UNKNOWN","rcs_meters":null,"size_class":null,"mass_kg":null,"dimensions":null,"purposes":["comms"],"wikipedia_slug":null,"has_3d_model":false,"image_url":null,"decayed_at":null,"tle_current":{"epoch":"2026-05-25T04:46:34.318848Z","epoch_age_seconds":51845,"freshness":"FRESH","line1":"1 51126U 22005Y   26145.19900832  .00001690  00000+0  12421-3 0  9992","line2":"2 51126  53.2142 315.6666 0001349 105.0047 255.1095 15.08854272240297","mean_motion":15.08854272,"eccentricity":0.0001349,"inclination_deg":53.2142,"raan_deg":315.6666,"arg_perigee_deg":105.0047,"mean_anomaly_deg":255.1095,"bstar":0.00012421,"rev_number":24029,"period_min":95.436651949911,"perigee_km":538.76654933389,"apogee_km":540.63298169323,"semimajor_km":6917.8367655136,"source":"CELESTRAK","updated_at":"2026-05-25T13:38:16.910888Z"}}}